Regional Weather Roundup
Issued by NWS

Home | Current Version | Previous Version | Graphics & Text | Print | Product List | Glossary On
Versions: 1 2 3 4 5 6 7 8 9 10 11 12 13 14 15 16 17 18 19 20 21 22 23 24 25 26 27
000
ASUS45 KCYS 200910
RWRWY

WYOMING REGIONAL WEATHER ROUNDUP
NATIONAL WEATHER SERVICE CHEYENNE WY
300 AM MDT THU JUL 20 2017

NOTE:  "FAIR" INDICATES FEW OR NO CLOUDS BELOW 12,000 FEET
WITH NO SIGNIFICANT WEATHER AND/OR OBSTRUCTIONS TO VISIBILITY.

WYZ001-201000-
YELLOWSTONE NATIONAL PARK

CITY           SKY/WX    TMP DP  RH WIND       PRES   REMARKS
LK YELLOWSTONE   N/A     44  37  76 CALM      30.31F
W YELLOWSTONE  NOT AVBL

$$
WYZ002>013-054>058-071-098>099-201000-
NORTHERN WYOMING

CITY           SKY/WX    TMP DP  RH WIND       PRES   REMARKS
JACKSON        FAIR      48  39  71 NE7       30.23S
CODY           FAIR      66  43  43 CALM      30.08S
GREYBULL       FAIR      76  51  41 SE7       29.99F
WORLAND        FAIR      73  55  53 SE10      30.01F
SHERIDAN       FAIR      67  51  56 W9        30.01F
BUFFALO        FAIR      69  47  45 S7        30.08F
GILLETTE       FAIR      73  54  51 S16       30.09S
HULETT         FAIR      73  54  49 S7        30.12S
NEWCASTLE      FAIR      73  50  43 E8G16     30.12F

$$
WYZ014>020-022>026-101>103-201000-
CENTRAL WYOMING

CITY           SKY/WX    TMP DP  RH WIND       PRES   REMARKS
BIG PINEY      FAIR      61  49  64 SE6       30.31S
PINEDALE       FAIR      55  48  76 NW9       30.33S
DUBOIS         FAIR      52  32  46 N3        30.28F
LANDER         FAIR      66  53  63 NW8       30.13F
RIVERTON       FAIR      64  54  69 W20       30.13R
CASPER         FAIR      64  55  72 W8        30.16F
DOUGLAS        FAIR      67  57  70 E7        30.17R

$$
WYZ021-027>030-104>119-201000-
SOUTHERN WYOMING

CITY           SKY/WX    TMP DP  RH WIND       PRES   REMARKS
EVANSTON       FAIR      60  50  69 S7        30.28S
KEMMERER         N/A     57  46  67 N5        30.30S
FORT BRIDGER   FAIR      61  47  61 W7        30.30S
ROCK SPRINGS   FAIR      63  52  67 SE17      30.26F
RAWLINS        FAIR      58  53  84 N6        30.28F
SARATOGA       FAIR      57  55  94 S7        30.30F
LARAMIE        CLOUDY    60  55  83 SE9       30.33F
CHEYENNE       FAIR      64  56  75 N5        30.27S
TORRINGTON     FAIR      67  63  87 NW9       30.12F
PINE BLUFFS    FAIR      63  61  94 NW10      30.19S

$$




USA.gov is the U.S. government's official web portal to all federal, state and local government web resources and services.